Location: Düngen
(52.0952°N, 10.0219°E)
Time: 15:12:37
(UTC+00:00)

Okean O Rocket - Pass Details

Date: 11 March 2026
Orbit: 613 x 635 km, 98.0° (Epoch: 14 April)

Event Time Altitude Azimuth Distance (km) Brightness Sun altitude
Exits shadow 20:53:41 29° 281° (W) 1,167 3.3 -31.6°
Drops below altitude 10° 20:57:00 10° 327° (NNW) 2,033 5.0 -32.0°
Sets 20:59:26 0° 339° (NNW) 2,947 5.9 -32.2°
